This is the latest recevied weather packets stored in our database for station/object KB0Y. If no packets are shown the sender has not sent any weather packets the latest 10 day(s).
| Time | Temp. | Humidity | Pressure | Rain* | Wind** | Luminosity | Snow |
|---|---|---|---|---|---|---|---|
| 1778176551 | 23.89° C | 99% | 1018.3 hPa | 0 mm | - | 30 W/m² | - |
| 1778176248 | 23.89° C | 98% | 1017.9 hPa | 0 mm | - | 30 W/m² | - |
| 1778175945 | 23.89° C | 98% | 1018.3 hPa | 0 mm | - | 30 W/m² | - |
| 1778175643 | 23.89° C | 98% | 1018.3 hPa | 0 mm | - | 32 W/m² | - |
| 1778175340 | 23.89° C | 98% | 1018.9 hPa | 0 mm | - | 33 W/m² | - |
| 1778175037 | 23.89° C | 98% | 1018.6 hPa | 0 mm | - | 36 W/m² | - |
| 1778174733 | 23.89° C | 98% | 1018.6 hPa | 0 mm | - | 41 W/m² | - |
| 1778174430 | 23.89° C | 97% | 1018.9 hPa | 0 mm | - | 56 W/m² | - |
| 1778174125 | 23.89° C | 97% | 1019.3 hPa | 0 mm | - | 58 W/m² | - |
| 1778173823 | 24.44° C | 96% | 1019.3 hPa | 0 mm | - | 53 W/m² | - |
| 1778173519 | 24.44° C | 95% | 1019.3 hPa | 0 mm | - | 56 W/m² | - |
| 1778173216 | 24.44° C | 95% | 1019.6 hPa | 0 mm | - | 39 W/m² | - |
| 1778172912 | 24.44° C | 96% | 1020.3 hPa | 0 mm | - | 47 W/m² | - |
| 1778172609 | 23.89° C | 95% | 1020 hPa | 0 mm | - | 74 W/m² | - |
| 1778172305 | 23.89° C | 96% | 1020.6 hPa | 0 mm | - | 98 W/m² | - |
| 1778172002 | 23.89° C | 96% | 1021 hPa | 0 mm | - | 147 W/m² | - |
| 1778171699 | 23.89° C | 97% | 1021 hPa | 0 mm | - | 153 W/m² | - |
| 1778171397 | 23.89° C | 97% | 1021.3 hPa | 0 mm | - | 88 W/m² | - |
| 1778171092 | 23.89° C | 97% | 1021 hPa | 0 mm | - | 93 W/m² | - |
| 1778170789 | 23.89° C | 97% | 1021 hPa | 0 mm | - | 92 W/m² | - |
| 1778170485 | 23.33° C | 97% | 1020.6 hPa | 0 mm | - | 105 W/m² | - |
| 1778170182 | 23.33° C | 98% | 1020 hPa | 0 mm | - | 147 W/m² | - |
| 1778169878 | 23.33° C | 98% | 1020 hPa | 0 mm | - | 173 W/m² | - |
| 1778169574 | 23.33° C | 99% | 1020 hPa | 0 mm | - | 178 W/m² | - |
| 1778169270 | 23.33° C | 99% | 1019.6 hPa | 0 mm | - | 132 W/m² | - |
* Rain latest hour (hover to see other rain measurements)
** Current wind speed in m/s (hover to see current wind gust speed)